LAN106 SCEL-SCSE

Flight info

Callsign LAN106
Flight time 0h 43m
Altitude 28000
Route DONTI5B DONTI UQ802 KUGAP KUGAP5
Aircraft A320/M-SDE3FGHIRWY/LB1

Departure

Time 2026-04-14 16:15
Airport Comodoro Arturo Merino Benítez International Airport (SCEL)

Arrival

Time 2026-04-14 16:58
Airport La Florida Airport (SCSE)
Time Latitude Longitude Altitude Speed Heading
2026-04-14 15:54 -33.39570 -70.79017 1565 ft 0 kts 183°
2026-04-14 16:03 -33.39562 -70.79016 1564 ft 3 kts 183°
2026-04-14 16:03 -33.39542 -70.79015 1564 ft 3 kts 183°
2026-04-14 16:03 -33.39523 -70.79014 1564 ft 2 kts 183°
2026-04-14 16:04 -33.39506 -70.79016 1564 ft 3 kts 143°
2026-04-14 16:04 -33.39497 -70.79032 1564 ft 3 kts 98°
2026-04-14 16:04 -33.39495 -70.79055 1564 ft 2 kts 88°
2026-04-14 16:04 -33.39496 -70.79063 1564 ft 0 kts 88°
2026-04-14 16:06 -33.39496 -70.79058 1564 ft 4 kts 88°
2026-04-14 16:07 -33.39493 -70.78955 1564 ft 18 kts 88°
2026-04-14 16:07 -33.39419 -70.78848 1564 ft 18 kts 27°
2026-04-14 16:07 -33.39313 -70.78794 1564 ft 16 kts
2026-04-14 16:07 -33.39206 -70.78801 1564 ft 15 kts 357°
2026-04-14 16:08 -33.39098 -70.78808 1564 ft 18 kts 357°
2026-04-14 16:08 -33.38941 -70.78815 1564 ft 27 kts 357°
2026-04-14 16:08 -33.38741 -70.78827 1564 ft 29 kts 358°
2026-04-14 16:08 -33.38542 -70.78836 1564 ft 27 kts 357°
2026-04-14 16:09 -33.38366 -70.78846 1564 ft 23 kts 357°
2026-04-14 16:09 -33.38206 -70.78854 1564 ft 24 kts 357°
2026-04-14 16:09 -33.38037 -70.78863 1564 ft 25 kts 357°
2026-04-14 16:09 -33.37863 -70.78872 1565 ft 26 kts 357°
2026-04-14 16:10 -33.37691 -70.78882 1564 ft 16 kts 357°
2026-04-14 16:10 -33.37636 -70.78859 1564 ft 0 kts 51°
2026-04-14 16:11 -33.37627 -70.78841 1564 ft 8 kts 67°
2026-04-14 16:11 -33.37624 -70.78798 1564 ft 0 kts 88°
2026-04-14 16:12 -33.37624 -70.78783 1564 ft 6 kts 88°
2026-04-14 16:12 -33.37622 -70.78737 1564 ft 4 kts 88°
2026-04-14 16:12 -33.37621 -70.78709 1564 ft 2 kts 88°
2026-04-14 16:13 -33.37620 -70.78690 1564 ft 6 kts 87°
2026-04-14 16:13 -33.37645 -70.78670 1565 ft 0 kts 176°
2026-04-14 16:14 -33.37781 -70.78662 1564 ft 54 kts 177°
2026-04-14 16:14 -33.38392 -70.78628 1564 ft 119 kts 177°
2026-04-14 16:14 -33.39393 -70.78575 1564 ft 167 kts 178°
2026-04-14 16:14 -33.40604 -70.78514 2062 ft 172 kts 175°
2026-04-14 16:15 -33.41822 -70.78427 2541 ft 183 kts 176°
2026-04-14 16:15 -33.43176 -70.78344 2831 ft 206 kts 176°
2026-04-14 16:15 -33.44675 -70.78255 3166 ft 225 kts 177°
2026-04-14 16:15 -33.46321 -70.78160 3522 ft 249 kts 177°
2026-04-14 16:16 -33.48128 -70.78061 4074 ft 267 kts 179°
2026-04-14 16:16 -33.49948 -70.78529 4833 ft 274 kts 211°
2026-04-14 16:16 -33.51269 -70.80147 5640 ft 276 kts 246°
2026-04-14 16:16 -33.51622 -70.82338 6444 ft 275 kts 277°
2026-04-14 16:17 -33.51178 -70.84559 7288 ft 275 kts 291°
2026-04-14 16:17 -33.50459 -70.86721 8143 ft 277 kts 295°
2026-04-14 16:17 -33.49731 -70.88833 9011 ft 279 kts 293°
2026-04-14 16:17 -33.49052 -70.91019 9866 ft 282 kts 290°
2026-04-14 16:18 -33.48434 -70.93289 10418 ft 296 kts 289°
2026-04-14 16:18 -33.47571 -70.95623 10679 ft 316 kts 302°
2026-04-14 16:18 -33.46216 -70.97735 11253 ft 324 kts 315°
2026-04-14 16:18 -33.44444 -70.99418 12002 ft 328 kts 329°
2026-04-14 16:19 -33.42350 -71.00520 12747 ft 332 kts 340°
2026-04-14 16:19 -33.40144 -71.01393 13502 ft 335 kts 340°
2026-04-14 16:19 -33.37921 -71.02264 14200 ft 338 kts 340°
2026-04-14 16:19 -33.35675 -71.03141 14809 ft 342 kts 340°
2026-04-14 16:20 -33.33400 -71.04027 15381 ft 346 kts 340°
2026-04-14 16:20 -33.31103 -71.04924 15987 ft 349 kts 340°
2026-04-14 16:20 -33.28773 -71.05836 16602 ft 353 kts 340°
2026-04-14 16:20 -33.26426 -71.06757 17194 ft 358 kts 339°
2026-04-14 16:21 -33.24044 -71.07687 17736 ft 363 kts 339°
2026-04-14 16:21 -33.21659 -71.08617 18293 ft 368 kts 339°
2026-04-14 16:21 -33.19180 -71.09582 18786 ft 372 kts 339°
2026-04-14 16:21 -33.16732 -71.10535 19303 ft 375 kts 339°
2026-04-14 16:22 -33.14239 -71.11508 19764 ft 379 kts 339°
2026-04-14 16:22 -33.11719 -71.12493 20232 ft 383 kts 339°
2026-04-14 16:22 -33.09180 -71.13482 20735 ft 386 kts 339°
2026-04-14 16:22 -33.06618 -71.14477 21186 ft 389 kts 339°
2026-04-14 16:23 -33.04036 -71.15480 21689 ft 392 kts 338°
2026-04-14 16:23 -33.01435 -71.16489 22157 ft 395 kts 338°
2026-04-14 16:23 -32.98808 -71.17511 22605 ft 399 kts 338°
2026-04-14 16:23 -32.96145 -71.18494 23060 ft 404 kts 343°
2026-04-14 16:24 -32.93347 -71.19010 23502 ft 411 kts 353°
2026-04-14 16:24 -32.90466 -71.19090 23893 ft 416 kts 355°
2026-04-14 16:24 -32.87560 -71.19144 24274 ft 418 kts 355°
2026-04-14 16:24 -32.84644 -71.19197 24668 ft 421 kts 355°
2026-04-14 16:25 -32.81708 -71.19253 25057 ft 422 kts 355°
2026-04-14 16:25 -32.78766 -71.19311 25443 ft 424 kts 355°
2026-04-14 16:25 -32.75805 -71.19370 25804 ft 427 kts 355°
2026-04-14 16:25 -32.72828 -71.19427 26152 ft 429 kts 355°
2026-04-14 16:26 -32.69869 -71.19479 26511 ft 431 kts 356°
2026-04-14 16:26 -32.66866 -71.19531 26873 ft 433 kts 355°
2026-04-14 16:26 -32.63843 -71.19587 27232 ft 435 kts 355°
2026-04-14 16:26 -32.60811 -71.19638 27580 ft 437 kts 356°
2026-04-14 16:27 -32.57758 -71.19688 27918 ft 439 kts 356°
2026-04-14 16:27 -32.54697 -71.19741 28132 ft 440 kts 355°
2026-04-14 16:27 -32.51693 -71.19794 28164 ft 425 kts 355°
2026-04-14 16:28 -32.45866 -71.19902 28166 ft 415 kts 355°
2026-04-14 16:28 -32.40097 -71.20017 28165 ft 413 kts 355°
2026-04-14 16:29 -32.34341 -71.20129 28167 ft 414 kts 355°
2026-04-14 16:29 -32.28587 -71.20228 28165 ft 414 kts 355°
2026-04-14 16:30 -32.22829 -71.20328 28139 ft 414 kts 355°
2026-04-14 16:30 -32.17058 -71.20438 28142 ft 415 kts 355°
2026-04-14 16:31 -32.11281 -71.20542 28140 ft 415 kts 355°
2026-04-14 16:31 -32.05501 -71.20647 28143 ft 416 kts 355°
2026-04-14 16:32 -31.99714 -71.20753 28143 ft 416 kts 355°
2026-04-14 16:32 -31.93924 -71.20853 28131 ft 416 kts 356°
2026-04-14 16:33 -31.88165 -71.20960 28134 ft 417 kts 356°
2026-04-14 16:33 -31.82364 -71.21063 28129 ft 417 kts 356°
2026-04-14 16:34 -31.76558 -71.21133 28131 ft 418 kts 357°
2026-04-14 16:34 -31.70742 -71.20838 28117 ft 419 kts
2026-04-14 16:35 -31.64927 -71.20376 28119 ft 420 kts
2026-04-14 16:35 -31.59083 -71.19964 28119 ft 420 kts
2026-04-14 16:36 -31.54233 -71.19667 28062 ft 419 kts 360°
2026-04-14 16:36 -31.51329 -71.19491 27799 ft 407 kts 360°
2026-04-14 16:36 -31.48550 -71.19322 27550 ft 403 kts 360°
2026-04-14 16:36 -31.45718 -71.19153 27284 ft 402 kts 360°
2026-04-14 16:37 -31.42932 -71.18990 27039 ft 400 kts 360°
2026-04-14 16:37 -31.40194 -71.18830 26797 ft 399 kts 360°
2026-04-14 16:37 -31.37448 -71.18668 26496 ft 389 kts 360°
2026-04-14 16:37 -31.34756 -71.18510 26071 ft 386 kts
2026-04-14 16:38 -31.32071 -71.18351 25610 ft 385 kts
2026-04-14 16:38 -31.29398 -71.18193 25154 ft 385 kts
2026-04-14 16:38 -31.26727 -71.18034 24684 ft 384 kts
2026-04-14 16:38 -31.24055 -71.17869 24202 ft 384 kts
2026-04-14 16:39 -31.21399 -71.17703 23719 ft 380 kts
2026-04-14 16:39 -31.18774 -71.17541 23166 ft 374 kts
2026-04-14 16:39 -31.16196 -71.17384 22716 ft 368 kts
2026-04-14 16:39 -31.13663 -71.17233 22264 ft 362 kts
2026-04-14 16:40 -31.11170 -71.17086 21799 ft 356 kts
2026-04-14 16:40 -31.08717 -71.16944 21368 ft 350 kts
2026-04-14 16:40 -31.06305 -71.16803 20939 ft 345 kts
2026-04-14 16:40 -31.03922 -71.16660 20517 ft 340 kts
2026-04-14 16:41 -31.01606 -71.16519 20109 ft 336 kts
2026-04-14 16:41 -30.99286 -71.16378 19707 ft 332 kts
2026-04-14 16:41 -30.96989 -71.16242 19283 ft 329 kts
2026-04-14 16:41 -30.94700 -71.16106 18933 ft 336 kts
2026-04-14 16:42 -30.92330 -71.15967 18616 ft 343 kts
2026-04-14 16:42 -30.89943 -71.15827 18264 ft 343 kts
2026-04-14 16:42 -30.87567 -71.15684 17910 ft 341 kts
2026-04-14 16:42 -30.85204 -71.15539 17580 ft 339 kts
2026-04-14 16:43 -30.82850 -71.15394 17259 ft 337 kts
2026-04-14 16:43 -30.80514 -71.15250 16934 ft 335 kts
2026-04-14 16:43 -30.78191 -71.15111 16610 ft 334 kts
2026-04-14 16:43 -30.75877 -71.14974 16281 ft 332 kts
2026-04-14 16:44 -30.73573 -71.14838 15966 ft 330 kts
2026-04-14 16:44 -30.71282 -71.14702 15649 ft 328 kts
2026-04-14 16:44 -30.69005 -71.14565 15329 ft 326 kts
2026-04-14 16:45 -30.64484 -71.14300 14698 ft 325 kts
2026-04-14 16:45 -30.62228 -71.14167 14386 ft 324 kts
2026-04-14 16:45 -30.60013 -71.14035 14080 ft 322 kts
2026-04-14 16:45 -30.57782 -71.13902 13753 ft 321 kts
2026-04-14 16:46 -30.55556 -71.13766 13436 ft 319 kts
2026-04-14 16:46 -30.53349 -71.13630 13120 ft 317 kts
2026-04-14 16:46 -30.51157 -71.13498 12821 ft 315 kts
2026-04-14 16:46 -30.48970 -71.13366 12521 ft 313 kts
2026-04-14 16:47 -30.46800 -71.13236 12208 ft 311 kts
2026-04-14 16:47 -30.44637 -71.13107 11914 ft 310 kts
2026-04-14 16:47 -30.42492 -71.12980 11617 ft 308 kts
2026-04-14 16:47 -30.40381 -71.12856 11330 ft 307 kts
2026-04-14 16:48 -30.38253 -71.12732 11030 ft 305 kts
2026-04-14 16:48 -30.36142 -71.12609 10741 ft 303 kts
2026-04-14 16:48 -30.34050 -71.12488 10446 ft 301 kts
2026-04-14 16:48 -30.31972 -71.12367 10087 ft 296 kts
2026-04-14 16:49 -30.29933 -71.12246 9752 ft 291 kts
2026-04-14 16:49 -30.27915 -71.12125 9466 ft 290 kts
2026-04-14 16:49 -30.25928 -71.11802 9185 ft 288 kts 16°
2026-04-14 16:49 -30.24097 -71.10908 8917 ft 286 kts 31°
2026-04-14 16:50 -30.22532 -71.09502 8675 ft 285 kts 46°
2026-04-14 16:50 -30.21214 -71.07798 8432 ft 283 kts 49°
2026-04-14 16:50 -30.19909 -71.06092 8188 ft 282 kts 48°
2026-04-14 16:50 -30.18607 -71.04400 7942 ft 281 kts 48°
2026-04-14 16:51 -30.17311 -71.02716 7696 ft 280 kts 48°
2026-04-14 16:51 -30.16040 -71.01064 7467 ft 278 kts 48°
2026-04-14 16:51 -30.14741 -70.99373 7229 ft 277 kts 48°
2026-04-14 16:51 -30.13477 -70.97738 6989 ft 273 kts 46°
2026-04-14 16:52 -30.12017 -70.96385 6749 ft 266 kts 30°
2026-04-14 16:52 -30.10385 -70.95437 6507 ft 259 kts 25°
2026-04-14 16:52 -30.08784 -70.94541 6275 ft 253 kts 26°
2026-04-14 16:52 -30.07232 -70.93669 6052 ft 244 kts 26°
2026-04-14 16:53 -30.05698 -70.92843 5824 ft 241 kts 19°
2026-04-14 16:53 -30.04059 -70.92797 5608 ft 238 kts 341°
2026-04-14 16:53 -30.02758 -70.93945 5328 ft 242 kts 304°
2026-04-14 16:53 -30.01938 -70.95671 5016 ft 249 kts 298°
2026-04-14 16:54 -30.01178 -70.97459 4719 ft 247 kts 296°
2026-04-14 16:54 -30.00461 -70.99194 4492 ft 236 kts 296°
2026-04-14 16:54 -29.99777 -71.00852 4268 ft 222 kts 295°
2026-04-14 16:54 -29.99129 -71.02405 4078 ft 206 kts 296°
2026-04-14 16:55 -29.98524 -71.03849 3780 ft 195 kts 295°
2026-04-14 16:55 -29.97941 -71.05234 3462 ft 190 kts 295°
2026-04-14 16:55 -29.97372 -71.06571 3163 ft 180 kts 295°
2026-04-14 16:55 -29.96827 -71.07847 2910 ft 176 kts 295°
2026-04-14 16:56 -29.96298 -71.09076 2670 ft 165 kts 295°
2026-04-14 16:56 -29.95800 -71.10233 2416 ft 158 kts 294°
2026-04-14 16:56 -29.95320 -71.11352 2162 ft 153 kts 293°
2026-04-14 16:56 -29.94859 -71.12429 1926 ft 146 kts 293°
2026-04-14 16:57 -29.94414 -71.13468 1730 ft 144 kts 292°
2026-04-14 16:57 -29.93971 -71.14506 1491 ft 144 kts 294°
2026-04-14 16:57 -29.93526 -71.15543 1284 ft 148 kts 296°
2026-04-14 16:57 -29.93086 -71.16612 1058 ft 148 kts 296°
2026-04-14 16:58 -29.92640 -71.17677 806 ft 147 kts 300°
2026-04-14 16:58 -29.92182 -71.18710 591 ft 143 kts 298°
2026-04-14 16:58 -29.91743 -71.19711 472 ft 128 kts 295°
2026-04-14 16:58 -29.91476 -71.20341 479 ft 44 kts 296°
2026-04-14 16:59 -29.91408 -71.20501 481 ft 19 kts 296°
2026-04-14 16:59 -29.91348 -71.20638 479 ft 20 kts 297°
2026-04-14 16:59 -29.91295 -71.20789 481 ft 20 kts 273°
2026-04-14 16:59 -29.91256 -71.20861 478 ft 5 kts 58°
2026-04-14 17:00 -29.91268 -71.20819 477 ft 7 kts 117°
2026-04-14 17:00 -29.91311 -71.20724 479 ft 21 kts 117°
2026-04-14 17:00 -29.91390 -71.20540 476 ft 28 kts 116°
2026-04-14 17:00 -29.91475 -71.20338 478 ft 28 kts 116°
2026-04-14 17:01 -29.91533 -71.20269 478 ft 11 kts 180°
2026-04-14 17:01 -29.91598 -71.20302 478 ft 9 kts 207°
2026-04-14 17:01 -29.91640 -71.20324 480 ft 4 kts 206°
2026-04-14 17:01 -29.91662 -71.20337 487 ft 3 kts 206°
2026-04-14 17:02 -29.91666 -71.20339 490 ft 0 kts 206°
2026-04-14 17:02 -29.91667 -71.20340 491 ft 0 kts 206°